Flag for Saint Kitts and Nevis Weather past 2 weeks in Basseterre, Saint Kitts and Nevis

Now
82 °F

Passing clouds.


Feels Like: 89 °F
Forecast: 82 / 85 °F
Wind: 10 mph from East

Location: Juliana Airport - Saint Maarten

Current Time: Jul 23, 2014 at 4:06:00 AM

Latest Report: Jul 23, 2014 at 2:00 AM


Visibility: N/A

Pressure: 30.04 "Hg

Humidity: 79%

Dew point: 75 °F

Location of BasseterreLocation

Historic Weather in Basseterre — Graph

°F

Basseterre temperature yesterday

Maximum temperature yesterday: 86 °F (at 10:00 AM)
Minimum temperature yesterday: 81 °F (at 12:00 AM)
Average temperature yesterday: 83 °F

Past Weeks' High & Low Weather Summary

 TemperatureHumidityPressure
High88 °F (Jul 8, 2:00 PM)89% (Jul 15, 1:00 AM)30.15 "Hg (Jul 15, 1:00 AM)
Low77 °F (Jul 15, 1:00 AM)55% (Jul 8, 2:00 PM)30.04 "Hg (Jul 9, 4:00 PM)
Average83 °F72%30.07 "Hg
* Reported Jul 8 1:00 AM — Jul 23 1:00 AM, Basseterre, Weather by CustomWeather, © 2014

Note: Actual official high and low records may vary slightly from our data, if they occured in-between our weather recording intervals... More about our weather records

Advertising

Basseterre weather history for previous 24 hours

 ConditionsComfort  
Time TempWeatherWind HumidityBarometerVisibility
1:00 AM
Jul 23
82 °FPassing clouds.9 mph79%30.07 "HgN/A
12:00 AM82 °FPassing clouds.10 mph79%30.09 "HgN/A
11:00 PM
Jul 22
82 °FPassing clouds.10 mph79%30.09 "HgN/A
10:00 PM82 °FPassing clouds.9 mph74%30.09 "HgN/A
9:00 PM82 °FPassing clouds.10 mph74%30.09 "HgN/A
8:00 PM82 °FPassing clouds.10 mph74%30.07 "HgN/A
7:00 PM84 °FPassing clouds.12 mph66%30.07 "HgN/A
12:00 PM86 °FPassing clouds.15 mph66%30.07 "HgN/A
11:00 AM86 °FPassing clouds.15 mph62%30.09 "HgN/A
10:00 AM86 °FPassing clouds.14 mph62%30.09 "HgN/A
9:00 AM84 °FPassing clouds.13 mph66%30.09 "HgN/A
8:00 AM84 °FPassing clouds.13 mph66%30.07 "HgN/A
7:00 AM82 °FScattered clouds.9 mph74%30.07 "HgN/A
6:00 AM81 °FPartly sunny.12 mph74%30.07 "HgN/A
5:00 AM81 °FPassing clouds.14 mph74%30.04 "HgN/A
4:00 AM81 °FPassing clouds.12 mph74%30.04 "HgN/A
Weather by CustomWeather, © 2014

See weather overviewHow to use our weather pages